DC1NF-7 Weather Reports


Display with metric or nautical units.
time (UTC)temp
F
wind
direction
speed
MPH
gust
MPH
rain 1hr
in
rain 24hr
in
rain mn
in
humidity
%
barometer
mb
20260505000555 60 203 1.0 2.0 0.00 0.00 0.00 72 1011.5
20260504235549 61 180 0.0 2.0 0.00 0.00 0.00 72 1011.7
20260504234546 61 225 0.0 2.0 0.00 0.00 0.00 70 1011.6
20260504233542 62 213 0.0 2.0 0.00 0.00 0.00 68 1011.9
20260504232541 62 203 0.0 2.0 0.00 0.00 0.00 67 1011.9
20260504231533 62 248 1.0 4.0 0.00 0.00 0.00 65 1011.7
20260504230530 63 221 1.0 4.0 0.00 0.00 0.00 64 1011.8
20260504225530 63 219 1.0 4.0 0.00 0.00 0.00 64 1011.8
20260504224524 63 242 1.0 4.0 0.00 0.00 0.00 64 1011.9
20260504223523 63 0.0 0.0 0.00 0.00 0.00 65 1012.0
20260504222515 63 203 0.0 2.0 0.00 0.00 0.00 66 1012.0
20260504221614 63 102 1.0 2.0 0.00 0.00 0.00 62 1012.0
20260504220607 64 92 1.0 4.0 0.00 0.00 0.00 62 1012.1
20260504215603 64 150 0.0 2.0 0.00 0.00 0.00 62 1012.1
20260504214558 64 205 1.0 4.0 0.00 0.00 0.00 61 1012.0
20260504213555 64 203 0.0 2.0 0.00 0.00 0.00 61 1012.1
20260504212555 64 115 1.0 2.0 0.00 0.00 0.00 61 1012.3
20260504211549 64 218 1.0 2.0 0.00 0.00 0.00 60 1012.3
20260504210548 65 160 1.0 4.0 0.00 0.00 0.00 60 1012.3
20260504205541 65 143 1.0 2.0 0.00 0.00 0.00 60 1012.2
20260504204536 65 210 0.0 2.0 0.00 0.00 0.00 59 1012.4
20260504203533 64 245 2.0 4.0 0.00 0.00 0.00 60 1012.4
20260504202530 64 234 1.0 2.0 0.00 0.00 0.00 62 1012.5
20260504201527 63 158 0.0 2.0 0.00 0.00 0.00 64 1012.1
20260504200523 65 158 0.0 2.0 0.00 0.00 0.00 61 1012.1
20260504195523 66 0.0 2.0 0.00 0.00 0.00 56 1012.0
20260504194517 66 180 0.0 2.0 0.00 0.00 0.00 55 1012.0
20260504193617 66 113 0.0 2.0 0.00 0.00 0.00 54 1012.0
20260504192609 67 191 0.0 2.0 0.00 0.00 0.00 54 1012.0
20260504191613 67 90 0.0 2.0 0.00 0.00 0.00 53 1011.9
20260504190601 67 68 0.0 2.0 0.00 0.00 0.00 53 1011.9
20260504185559 67 113 0.0 2.0 0.00 0.00 0.00 53 1012.0
20260504184559 67 0.0 0.0 0.00 0.00 0.00 53 1011.9
20260504183551 67 228 1.0 2.0 0.00 0.00 0.00 52 1012.0
20260504182550 68 0.0 2.0 0.00 0.00 0.00 51 1011.9
20260504181546 68 0.0 2.0 0.00 0.00 0.00 50 1012.0
20260504180539 69 225 0.0 2.0 0.00 0.00 0.00 49 1012.0
20260504175534 69 90 0.0 2.0 0.00 0.00 0.00 49 1012.1
20260504174530 69 197 0.0 2.0 0.00 0.00 0.00 48 1012.0
20260504173530 70 90 0.0 2.0 0.00 0.00 0.00 47 1012.0
20260504172526 70 234 1.0 4.0 0.00 0.00 0.00 45 1012.0
20260504171523 71 207 1.0 2.0 0.00 0.00 0.00 45 1012.1
20260504170516 71 203 0.0 2.0 0.00 0.00 0.00 44 1012.2
20260504150533 74 204 1.0 2.0 0.00 0.00 0.00 40 1012.3
20260504140610 79 187 1.0 4.0 0.00 0.00 0.00 35 1012.8
20260504130548 76 194 1.0 4.0 0.00 0.00 0.00 37 1013.1
20260504110605 72 176 3.0 8.0 0.00 0.00 0.00 39 1014.0
20260504100541 69 189 5.0 11.0 0.00 0.00 0.00 41 1014.7
20260504081600 67 200 2.0 6.0 0.00 0.00 0.00 47 1015.3
20260504080558 66 180 3.0 6.0 0.00 0.00 0.00 48 1015.4
20260504050550 52 0.0 2.0 0.00 0.00 0.00 76 1015.1
20260504045546 52 0.0 0.0 0.00 0.00 0.00 76 1015.1
20260504044546 52 0.0 0.0 0.00 0.00 0.00 75 1014.9
20260504043538 52 0.0 0.0 0.00 0.00 0.00 75 1014.8
20260504042535 51 0.0 0.0 0.00 0.00 0.00 76 1014.8
20260504041531 51 0.0 0.0 0.00 0.00 0.00 77 1014.8
20260504040528 52 0.0 0.0 0.00 0.00 0.00 76 1014.9
20260504035525 52 0.0 0.0 0.00 0.00 0.00 75 1014.9
20260504034522 52 0.0 0.0 0.00 0.00 0.00 75 1014.9
20260504033518 53 0.0 0.0 0.00 0.00 0.00 72 1015.0
20260504032614 53 0.0 0.0 0.00 0.00 0.00 71 1014.9
20260504031613 53 0.0 0.0 0.00 0.00 0.00 70 1014.9
20260504030609 54 0.0 0.0 0.00 0.00 0.00 69 1014.8
20260504025604 54 0.0 0.0 0.00 0.00 0.00 69 1014.9
20260504024600 55 0.0 0.0 0.00 0.00 0.00 67 1014.9
20260504023602 55 0.0 0.0 0.00 0.00 0.00 67 1014.9
20260504022552 55 0.0 0.0 0.00 0.00 0.00 67 1014.9
20260504021548 55 0.0 0.0 0.00 0.00 0.00 67 1014.9
20260504020547 56 0.0 0.0 0.00 0.00 0.00 65 1014.8
20260504015542 55 0.0 0.0 0.00 0.00 0.00 65 1014.8
20260504014535 55 0.0 0.0 0.00 0.00 0.00 66 1014.8
20260504013532 55 0.0 0.0 0.00 0.00 0.00 65 1014.8
20260504012529 55 0.0 0.0 0.00 0.00 0.00 66 1014.9
20260504011525 55 0.0 0.0 0.00 0.00 0.00 67 1014.9
20260504010524 55 0.0 0.0 0.00 0.00 0.00 65 1015.0
20260504005520 56 0.0 0.0 0.00 0.00 0.00 62 1014.9
20260504004616 57 0.0 0.0 0.00 0.00 0.00 60 1015.0
20260504003618 57 225 1.0 2.0 0.00 0.00 0.00 59 1015.0
20260504002606 56 0.0 0.0 0.00 0.00 0.00 62 1014.9
20260504001603 57 0.0 0.0 0.00 0.00 0.00 61 1014.9